TimeEDT,TemperatureF,Dew PointF,Humidity,Sea Level PressureIn,VisibilityMPH,Wind Direction,Wind SpeedMPH,Gust SpeedMPH,PrecipitationIn,Events,Conditions,WindDirDegrees,DateUTC
12:53 AM,73.9,71.1,91,30.05,9.0,Calm,Calm,-,N/A,,Clear,0,2013-08-08 04:53:00
1:53 AM,73.9,71.1,91,30.03,8.0,Calm,Calm,-,N/A,,Clear,0,2013-08-08 05:53:00
2:53 AM,73.0,71.1,93,30.03,7.0,Calm,Calm,-,N/A,,Clear,0,2013-08-08 06:53:00
3:53 AM,73.0,70.0,90,30.03,7.0,Calm,Calm,-,N/A,,Clear,0,2013-08-08 07:53:00
4:53 AM,72.0,70.0,93,30.03,7.0,Calm,Calm,-,N/A,,Clear,0,2013-08-08 08:53:00
5:53 AM,72.0,69.1,91,30.03,7.0,Calm,Calm,-,N/A,,Clear,0,2013-08-08 09:53:00
6:53 AM,72.0,69.1,91,30.04,5.0,Calm,Calm,-,N/A,,Clear,0,2013-08-08 10:53:00
7:53 AM,73.9,70.0,87,30.05,8.0,Calm,Calm,-,N/A,,Clear,0,2013-08-08 11:53:00
8:53 AM,78.1,72.0,81,30.06,9.0,Calm,Calm,-,N/A,,Clear,0,2013-08-08 12:53:00
9:53 AM,80.1,72.0,76,30.06,10.0,Calm,Calm,-,N/A,,Clear,0,2013-08-08 13:53:00
10:38 AM,82.4,71.6,70,30.07,10.0,Variable,3.5,-,N/A,,Mostly Cloudy,0,2013-08-08 14:38:00
10:48 AM,82.4,71.6,70,30.07,10.0,SE,5.8,-,N/A,,Scattered Clouds,140,2013-08-08 14:48:00
10:53 AM,82.0,70.0,67,30.06,10.0,SE,3.5,-,N/A,,Partly Cloudy,140,2013-08-08 14:53:00
11:53 AM,84.9,69.1,59,30.07,10.0,SE,5.8,-,N/A,,Partly Cloudy,130,2013-08-08 15:53:00
12:53 PM,86.0,68.0,55,30.07,10.0,Variable,3.5,-,N/A,,Partly Cloudy,0,2013-08-08 16:53:00
1:53 PM,87.1,69.1,55,30.05,10.0,Variable,3.5,-,N/A,,Clear,0,2013-08-08 17:53:00
2:53 PM,90.0,69.1,50,30.04,10.0,Calm,Calm,-,N/A,,Clear,0,2013-08-08 18:53:00
3:53 PM,90.0,70.0,52,30.02,8.0,Calm,Calm,-,N/A,,Scattered Clouds,0,2013-08-08 19:53:00
4:53 PM,89.1,68.0,50,30.01,10.0,West,3.5,-,N/A,,Partly Cloudy,280,2013-08-08 20:53:00
5:53 PM,89.1,69.1,52,30.01,10.0,South,5.8,-,N/A,,Clear,180,2013-08-08 21:53:00
6:53 PM,88.0,71.1,57,30.01,10.0,South,9.2,-,N/A,,Clear,170,2013-08-08 22:53:00
7:53 PM,84.9,72.0,65,30.01,10.0,South,3.5,-,N/A,,Clear,190,2013-08-08 23:53:00
8:53 PM,82.0,73.0,74,30.03,10.0,SSE,3.5,-,N/A,,Clear,150,2013-08-09 00:53:00
9:53 PM,80.1,73.9,81,30.05,10.0,Calm,Calm,-,N/A,,Clear,0,2013-08-09 01:53:00
10:53 PM,79.0,73.9,84,30.07,10.0,SSW,3.5,-,N/A,,Clear,200,2013-08-09 02:53:00
11:53 PM,78.1,73.0,84,30.06,10.0,South,3.5,-,N/A,,Scattered Clouds,190,2013-08-09 03:53:00